STARLINK-5478

decayed
NORAD ID: 55642 Int'l Des: 2023-021 Owner: SPXS Country: US Constellation: starlink
LEOCIRCULAR

关于 STARLINK-5478

正在加载描述...

高度历史

Altitude vs Time

uPlot chart will show altitude changes over time

两行轨道根数

1 55642U 23021Q 24177.90438306 .18787185 44399-5 22478-2 0 9998
2 55642 69.9717 295.3812 0013043 330.4233 184.6975 16.35944854 75766
Epoch: Jun 25, 2024 • Age: 10720 hours

当前状态

Position data unavailable
发射日期 Feb 17, 2023
运行时间 2.5 years
衰减日期 Jun 26, 2024
类型 internet

技术详情

分类 Payload
质量 305.00 kg
干质量 290.00 kg
总质量 305.00 kg
长度 0.20 m
直径 2.80 m
跨度 9.00 m
形状 Box + pan
制造商 SPXS
平台类型 Starlink
阶段状态 Unknown Transfer Status
所有者/国家 SPXS/US

大型星座

Loading constellations...